When you browse on this site, cookies collect data to enhance your experience and personalize the content and advertising you see.
Visit our Privacy Policy to learn more. By continuing to use the site, you agree to this use of cookies and data.
  • în România
  • Lista ţărilor
  • Pe 7 zile
  • Temperatura apei
  • Hartă satelitară
  • Meteo pe hartă
  • Widget-uri
  • user-avatar
    Intrare

    Meteo pe oră la Berezovyy Gay

    Astăzi, 25 Martie, Luni

    Timp Temperatura Precipitaţii Vânt Presiune Umiditate
    00:00 -2°C° 0.9 mm 7 m/s 746 mmHg 97%
    01:00 -1°C° 1.1 mm 6 m/s 745 mmHg 97%
    02:00 -1°C° 1.1 mm 6 m/s 744 mmHg 98%
    03:00 0°C° 1.1 mm 5 m/s 743 mmHg 98%
    04:00 -1°C° 0.1 mm 5 m/s 742 mmHg 96%
    05:00 -2°C° 0.1 mm 6 m/s 742 mmHg 93%
    06:00 -2°C° 0.1 mm 6 m/s 741 mmHg 91%
    07:00 -2°C° 0.1 mm 6 m/s 741 mmHg 91%
    08:00 -2°C° 0.1 mm 7 m/s 742 mmHg 92%
    09:00 -2°C° 0.1 mm 7 m/s 742 mmHg 92%
    10:00 -2°C° 0.3 mm 8 m/s 742 mmHg 91%
    11:00 -3°C° 0.3 mm 9 m/s 743 mmHg 90%
    12:00 -3°C° 0.3 mm 9 m/s 743 mmHg 89%
    13:00 -3°C° 0.2 mm 9 m/s 744 mmHg 88%
    14:00 -2°C° 0.2 mm 8 m/s 744 mmHg 87%
    15:00 -2°C° 0.2 mm 8 m/s 745 mmHg 86%
    16:00 -2°C° 0.1 mm 7 m/s 746 mmHg 87%
    17:00 -2°C° 0.1 mm 7 m/s 747 mmHg 88%
    18:00 -2°C° 0.1 mm 6 m/s 747 mmHg 90%
    19:00 -2°C° 0.1 mm 6 m/s 748 mmHg 88%
    20:00 -3°C° 0.1 mm 6 m/s 749 mmHg 87%
    21:00 -3°C° 0.1 mm 6 m/s 749 mmHg 86%
    22:00 -3°C° 0 mm 6 m/s 750 mmHg 87%
    23:00 -4°C° 0 mm 6 m/s 751 mmHg 88%

    Mâine, 26 Martie, Marţi

    Timp Temperatura Precipitaţii Vânt Presiune Umiditate
    00:00 -4°C° 0 mm 6 m/s 751 mmHg 89%
    01:00 -5°C° 0 mm 5 m/s 752 mmHg 90%
    02:00 -5°C° 0 mm 5 m/s 752 mmHg 90%
    03:00 -5°C° 0 mm 4 m/s 753 mmHg 90%
    04:00 -5°C° 0 mm 4 m/s 754 mmHg 91%
    05:00 -7°C° 0 mm 4 m/s 754 mmHg 91%
    06:00 -7°C° 0 mm 4 m/s 755 mmHg 92%
    07:00 -5°C° 0 mm 4 m/s 755 mmHg 91%
    08:00 -4°C° 0 mm 4 m/s 755 mmHg 90%
    09:00 -3°C° 0 mm 4 m/s 756 mmHg 89%
    10:00 -3°C° 0 mm 4 m/s 756 mmHg 90%
    11:00 -2°C° 0 mm 4 m/s 756 mmHg 90%
    12:00 -2°C° 0 mm 4 m/s 757 mmHg 91%
    13:00 -2°C° 0 mm 4 m/s 756 mmHg 90%
    14:00 -1°C° 0 mm 4 m/s 756 mmHg 89%
    15:00 -1°C° 0 mm 4 m/s 756 mmHg 88%
    16:00 -2°C° 0 mm 4 m/s 756 mmHg 88%
    17:00 -2°C° 0 mm 4 m/s 756 mmHg 88%
    18:00 -3°C° 0 mm 4 m/s 755 mmHg 89%
    19:00 -2°C° 0.1 mm 5 m/s 755 mmHg 87%
    20:00 -2°C° 0.1 mm 6 m/s 755 mmHg 85%
    21:00 -2°C° 0.1 mm 7 m/s 754 mmHg 84%
    22:00 -1°C° 0.4 mm 7 m/s 754 mmHg 84%
    23:00 -1°C° 0.4 mm 8 m/s 753 mmHg 85%

    Poimâine, 27 Martie, Miercuri

    Timp Temperatura Precipitaţii Vânt Presiune Umiditate
    00:00 0°C° 0.4 mm 8 m/s 753 mmHg 85%
    01:00 0°C° 0.5 mm 8 m/s 753 mmHg 84%
    02:00 0°C° 0.5 mm 9 m/s 753 mmHg 84%
    03:00 0°C° 0.5 mm 9 m/s 753 mmHg 83%
    04:00 0°C° 0.6 mm 9 m/s 752 mmHg 84%
    05:00 0°C° 0.6 mm 8 m/s 752 mmHg 85%
    06:00 -1°C° 0.6 mm 8 m/s 752 mmHg 87%
    07:00 -1°C° 0.7 mm 8 m/s 752 mmHg 86%
    08:00 -1°C° 0.7 mm 8 m/s 753 mmHg 86%
    09:00 -1°C° 0.7 mm 8 m/s 753 mmHg 86%
    10:00 -1°C° 0.5 mm 8 m/s 753 mmHg 88%
    11:00 -1°C° 0.5 mm 7 m/s 753 mmHg 90%
    12:00 -1°C° 0.5 mm 7 m/s 753 mmHg 92%
    13:00 -2°C° 0.6 mm 6 m/s 754 mmHg 94%
    14:00 -2°C° 0.6 mm 6 m/s 754 mmHg 96%
    15:00 -1°C° 0.6 mm 5 m/s 754 mmHg 98%
    16:00 -1°C° 0.1 mm 4 m/s 754 mmHg 98%
    17:00 0°C° 0.1 mm 3 m/s 755 mmHg 97%
    18:00 +1°C° 0.1 mm 2 m/s 755 mmHg 97%
    19:00 +1°C° 0 mm 2 m/s 755 mmHg 97%
    20:00 +1°C° 0 mm 2 m/s 755 mmHg 97%
    21:00 +1°C° 0 mm 2 m/s 755 mmHg 96%
    22:00 +1°C° 0 mm 1 m/s 755 mmHg 96%
    23:00 +1°C° 0 mm 1 m/s 755 mmHg 95%

    28 Martie, Joi

    Timp Temperatura Precipitaţii Vânt Presiune Umiditate
    00:00 0°C° 0 mm 1 m/s 755 mmHg 95%
    01:00 0°C° 0 mm 1 m/s 755 mmHg 94%
    02:00 -1°C° 0 mm 1 m/s 755 mmHg 94%
    03:00 -1°C° 0 mm 1 m/s 755 mmHg 94%
    04:00 -2°C° 0 mm 1 m/s 755 mmHg 93%
    05:00 -2°C° 0 mm 1 m/s 755 mmHg 92%
    06:00 -2°C° 0 mm 1 m/s 755 mmHg 91%
    07:00 -3°C° 0 mm 2 m/s 755 mmHg 90%
    08:00 -2°C° 0 mm 2 m/s 755 mmHg 88%
    09:00 -1°C° 0 mm 2 m/s 755 mmHg 87%
    10:00 -1°C° 0 mm 2 m/s 755 mmHg 85%
    11:00 +1°C° 0 mm 2 m/s 755 mmHg 84%
    12:00 0°C° 0 mm 3 m/s 755 mmHg 83%
    13:00 0°C° 0 mm 3 m/s 755 mmHg 81%
    14:00 +1°C° 0 mm 3 m/s 754 mmHg 79%
    15:00 +1°C° 0 mm 3 m/s 754 mmHg 78%
    16:00 0°C° 0 mm 3 m/s 754 mmHg 80%
    17:00 -1°C° 0 mm 3 m/s 754 mmHg 82%
    18:00 -1°C° 0 mm 3 m/s 755 mmHg 85%
    19:00 -2°C° 0 mm 3 m/s 755 mmHg 87%
    20:00 -2°C° 0 mm 3 m/s 755 mmHg 89%
    21:00 -2°C° 0 mm 3 m/s 755 mmHg 91%
    22:00 -2°C° 0 mm 3 m/s 755 mmHg 92%
    23:00 -2°C° 0 mm 3 m/s 755 mmHg 92%

    29 Martie, Vineri

    Timp Temperatura Precipitaţii Vânt Presiune Umiditate
    00:00 -2°C° 0 mm 3 m/s 756 mmHg 93%
    01:00 -3°C° 0 mm 4 m/s 756 mmHg 92%
    02:00 -3°C° 0 mm 4 m/s 756 mmHg 92%
    03:00 -3°C° 0 mm 4 m/s 756 mmHg 91%
    04:00 -3°C° 0 mm 4 m/s 756 mmHg 90%
    05:00 -4°C° 0 mm 4 m/s 757 mmHg 90%
    06:00 -4°C° 0 mm 4 m/s 757 mmHg 89%
    07:00 -4°C° 0 mm 4 m/s 757 mmHg 85%
    08:00 -3°C° 0 mm 4 m/s 757 mmHg 82%
    09:00 -2°C° 0 mm 3 m/s 758 mmHg 78%
    10:00 -1°C° 0 mm 3 m/s 757 mmHg 77%
    11:00 -2°C° 0 mm 4 m/s 757 mmHg 76%
    12:00 -1°C° 0 mm 4 m/s 757 mmHg 74%
    13:00 -1°C° 0 mm 4 m/s 756 mmHg 74%
    14:00 -1°C° 0 mm 5 m/s 756 mmHg 74%
    15:00 -1°C° 0 mm 5 m/s 756 mmHg 74%
    16:00 -1°C° 0 mm 5 m/s 755 mmHg 78%
    17:00 -2°C° 0 mm 5 m/s 755 mmHg 82%
    18:00 -4°C° 0 mm 5 m/s 754 mmHg 86%
    19:00 -4°C° 0.1 mm 5 m/s 754 mmHg 88%
    20:00 -4°C° 0.1 mm 5 m/s 754 mmHg 90%
    21:00 -4°C° 0.1 mm 5 m/s 754 mmHg 91%
    22:00 -3°C° 0.1 mm 4 m/s 754 mmHg 92%
    23:00 -3°C° 0.1 mm 4 m/s 754 mmHg 92%

    30 Martie, Sâmbătă

    Timp Temperatura Precipitaţii Vânt Presiune Umiditate
    00:00 -2°C° 0.1 mm 3 m/s 754 mmHg 93%
    01:00 -2°C° 0 mm 3 m/s 754 mmHg 93%
    02:00 -2°C° 0 mm 3 m/s 754 mmHg 94%
    03:00 -4°C° 0 mm 3 m/s 754 mmHg 94%
    04:00 -2°C° 0 mm 2 m/s 755 mmHg 94%
    05:00 -2°C° 0 mm 2 m/s 755 mmHg 94%
    06:00 -2°C° 0 mm 2 m/s 756 mmHg 94%
    07:00 -2°C° 0 mm 2 m/s 756 mmHg 92%
    08:00 -1°C° 0 mm 3 m/s 757 mmHg 91%
    09:00 -1°C° 0 mm 3 m/s 757 mmHg 89%
    10:00 0°C° 0 mm 3 m/s 757 mmHg 89%
    11:00 +1°C° 0 mm 2 m/s 757 mmHg 88%
    12:00 +1°C° 0 mm 2 m/s 758 mmHg 88%
    13:00 +2°C° 0 mm 2 m/s 758 mmHg 88%
    14:00 +2°C° 0 mm 2 m/s 758 mmHg 87%
    15:00 +2°C° 0 mm 2 m/s 758 mmHg 87%
    16:00 +1°C° 0 mm 2 m/s 758 mmHg 88%
    17:00 -1°C° 0 mm 2 m/s 758 mmHg 90%
    18:00 +1°C° 0 mm 1 m/s 758 mmHg 91%
    19:00 -2°C° 0 mm 2 m/s 759 mmHg 92%
    20:00 -2°C° 0 mm 2 m/s 759 mmHg 93%
    21:00 -2°C° 0 mm 2 m/s 759 mmHg 93%
    22:00 -2°C° 0 mm 2 m/s 759 mmHg 93%
    23:00 -3°C° 0 mm 2 m/s 759 mmHg 93%
    Arată mai mult